| time (UTC) | temp F | wind direction | speed knots | gust knots | rain 1hr in | rain 24hr in | rain mn in | humidity % | barometer mb |
| 20260507121532 | 52 | 251 | 1.7 | 4.3 | 0.00 | 0.00 | 0.00 | 88 | 1021.6 |
| 20260507120041 | 52 | 270 | 2.6 | 13.9 | 0.00 | 0.00 | 0.00 | 89 | 1021.6 |
| 20260507114530 | 52 | 294 | 4.3 | 11.3 | 0.00 | 0.00 | 0.00 | 90 | 1021.7 |
| 20260507113040 | 52 | 272 | 2.6 | 8.7 | 0.00 | 0.00 | 0.00 | 90 | 1021.6 |
| 20260507111531 | 52 | 269 | 1.7 | 7.8 | 0.00 | 0.00 | 0.00 | 89 | 1021.6 |
| 20260507110031 | 52 | 311 | 0.9 | 8.7 | 0.00 | 0.00 | 0.00 | 88 | 1021.5 |
| 20260507104531 | 52 | 284 | 1.7 | 6.1 | 0.00 | 0.00 | 0.00 | 87 | 1021.6 |
| 20260507103032 | 52 | 255 | 2.6 | 7.8 | 0.00 | 0.00 | 0.00 | 86 | 1021.9 |
| 20260507101529 | 52 | 247 | 1.7 | 11.3 | 0.00 | 0.00 | 0.00 | 85 | 1022.1 |
| 20260507100036 | 52 | 244 | 2.6 | 10.4 | 0.00 | 0.00 | 0.00 | 83 | 1022.2 |
| 20260507094528 | 52 | 249 | 3.5 | 10.4 | 0.00 | 0.00 | 0.00 | 83 | 1022.2 |
| 20260507093030 | 52 | 257 | 2.6 | 6.1 | 0.00 | 0.00 | 0.00 | 83 | 1021.8 |
| 20260507091528 | 51 | 267 | 1.7 | 5.2 | 0.00 | 0.00 | 0.00 | 85 | 1022.1 |
| 20260507090028 | 51 | 281 | 1.7 | 5.2 | 0.00 | 0.00 | 0.00 | 87 | 1022.0 |
| 20260507084528 | 50 | 260 | 1.7 | 4.3 | 0.00 | 0.00 | 0.00 | 88 | 1021.9 |
| 20260507083027 | 50 | 286 | 0.0 | 1.7 | 0.00 | 0.00 | 0.00 | 88 | 1021.8 |
| 20260507081533 | 51 | 261 | 0.0 | 1.7 | 0.00 | 0.00 | 0.00 | 87 | 1022.0 |
| 20260507080027 | 51 | 232 | 0.0 | 3.5 | 0.00 | 0.00 | 0.00 | 86 | 1021.7 |
| 20260507074532 | 51 | 199 | 0.9 | 4.3 | 0.00 | 0.00 | 0.00 | 85 | 1021.8 |
| 20260507073026 | 51 | 240 | 0.9 | 3.5 | 0.00 | 0.00 | 0.00 | 85 | 1021.7 |
| 20260507071532 | 51 | 273 | 0.9 | 7.0 | 0.00 | 0.00 | 0.00 | 84 | 1021.7 |
| 20260507070026 | 51 | 286 | 1.7 | 3.5 | 0.00 | 0.00 | 0.00 | 84 | 1021.5 |
| 20260507064527 | 51 | 258 | 0.9 | 3.5 | 0.00 | 0.00 | 0.00 | 83 | 1021.6 |
| 20260507063025 | 51 | 246 | 1.7 | 7.0 | 0.00 | 0.00 | 0.00 | 82 | 1021.7 |
| 20260507061532 | 51 | 265 | 0.0 | 4.3 | 0.00 | 0.00 | 0.00 | 82 | 1021.8 |
| 20260507060024 | 52 | 242 | 0.9 | 3.5 | 0.00 | 0.00 | 0.00 | 80 | 1021.9 |
| 20260507054524 | 53 | 242 | 1.7 | 5.2 | 0.00 | 0.00 | 0.00 | 78 | 1022.0 |
| 20260507053031 | 53 | 183 | 0.9 | 5.2 | 0.00 | 0.00 | 0.00 | 77 | 1022.0 |
| 20260507051524 | 53 | 252 | 0.9 | 4.3 | 0.00 | 0.00 | 0.00 | 76 | 1022.0 |
| 20260507050024 | 53 | 200 | 0.9 | 5.2 | 0.00 | 0.00 | 0.00 | 77 | 1021.8 |
| 20260507044524 | 53 | 196 | 0.9 | 7.0 | 0.00 | 0.00 | 0.00 | 75 | 1021.9 |
| 20260507043025 | 53 | 261 | 0.9 | 7.8 | 0.00 | 0.00 | 0.00 | 75 | 1021.8 |
| 20260507041523 | 53 | 212 | 2.6 | 6.1 | 0.00 | 0.00 | 0.00 | 79 | 1021.9 |
| 20260507040023 | 52 | 225 | 2.6 | 5.2 | 0.00 | 0.00 | 0.00 | 79 | 1021.9 |
| 20260507034532 | 52 | 239 | 1.7 | 4.3 | 0.00 | 0.00 | 0.00 | 80 | 1021.8 |
| 20260507033022 | 52 | 243 | 1.7 | 3.5 | 0.00 | 0.00 | 0.00 | 78 | 1022.0 |
| 20260507031522 | 53 | 186 | 0.9 | 5.2 | 0.00 | 0.00 | 0.00 | 74 | 1021.9 |
| 20260507030023 | 53 | 192 | 1.7 | 4.3 | 0.00 | 0.00 | 0.00 | 75 | 1021.9 |
| 20260507024521 | 53 | 178 | 2.6 | 5.2 | 0.00 | 0.00 | 0.00 | 77 | 1022.0 |
| 20260507023020 | 52 | 190 | 0.9 | 6.1 | 0.00 | 0.00 | 0.00 | 78 | 1022.1 |
| 20260507021520 | 52 | 239 | 1.7 | 5.2 | 0.00 | 0.00 | 0.00 | 77 | 1022.3 |
| 20260507020020 | 54 | 191 | 3.5 | 11.3 | 0.00 | 0.00 | 0.00 | 68 | 1022.4 |
| 20260507014521 | 54 | 252 | 3.5 | 9.6 | 0.00 | 0.00 | 0.00 | 62 | 1021.9 |
| 20260507013016 | 54 | 236 | 2.6 | 9.6 | 0.00 | 0.00 | 0.00 | 64 | 1021.9 |
| 20260507011613 | 53 | 193 | 3.5 | 11.3 | 0.00 | 0.00 | 0.00 | 67 | 1022.0 |
| 20260507010026 | 52 | 230 | 1.7 | 6.1 | 0.00 | 0.00 | 0.00 | 75 | 1021.9 |
| 20260507004507 | 51 | 263 | 0.9 | 6.1 | 0.00 | 0.00 | 0.00 | 81 | 1021.8 |
| 20260507003005 | 50 | 248 | 1.7 | 7.8 | 0.00 | 0.00 | 0.00 | 82 | 1021.7 |
| 20260507001502 | 50 | 243 | 2.6 | 6.1 | 0.00 | 0.00 | 0.00 | 83 | 1021.5 |
| 20260507000002 | 48 | 231 | 1.7 | 6.1 | 0.00 | 0.00 | 0.00 | 88 | 1021.4 |
| 20260506234501 | 46 | 221 | 0.0 | 2.6 | 0.00 | 0.00 | 0.00 | 90 | 1021.3 |
| 20260506233002 | 46 | 204 | 0.0 | 0.9 | 0.00 | 0.00 | 0.00 | 91 | 1021.2 |
| 20260506231600 | 46 | 246 | 0.0 | 0.9 | 0.00 | 0.00 | 0.00 | 92 | 1021.4 |
| 20260506230101 | 45 | 173 | 0.0 | 0.9 | 0.00 | 0.00 | 0.00 | 91 | 1021.1 |
| 20260506224613 | 45 | 247 | 0.0 | 1.7 | 0.00 | 0.00 | 0.00 | 91 | 1021.0 |
| 20260506223102 | 46 | 270 | 0.0 | 1.7 | 0.00 | 0.00 | 0.00 | 92 | 1021.0 |
| 20260506221557 | 45 | 314 | 0.0 | 0.9 | 0.00 | 0.00 | 0.00 | 92 | 1020.7 |
| 20260506220108 | 45 | 323 | 0.0 | 1.7 | 0.00 | 0.00 | 0.00 | 92 | 1020.5 |
| 20260506214555 | 44 | 238 | 0.0 | 0.9 | 0.00 | 0.00 | 0.00 | 92 | 1020.3 |
| 20260506213053 | 44 | 236 | 0.0 | 0.9 | 0.00 | 0.00 | 0.00 | 91 | 1020.1 |
| 20260506211556 | 44 | 188 | 0.0 | 6.1 | 0.00 | 0.00 | 0.00 | 91 | 1019.9 |
| 20260506210050 | 44 | 227 | 0.0 | 2.6 | 0.00 | 0.00 | 0.00 | 91 | 1019.4 |
| 20260506204549 | 44 | 243 | 0.0 | 0.9 | 0.00 | 0.00 | 0.00 | 91 | 1019.0 |
| 20260506203056 | 44 | 281 | 0.0 | 2.6 | 0.00 | 0.00 | 0.00 | 91 | 1018.7 |
| 20260506201548 | 44 | 286 | 0.0 | 1.7 | 0.00 | 0.00 | 0.00 | 91 | 1018.4 |
| 20260506200047 | 44 | 254 | 0.9 | 3.5 | 0.00 | 0.00 | 0.00 | 91 | 1018.5 |
| 20260506194551 | 44 | 297 | 0.9 | 5.2 | 0.00 | 0.00 | 0.00 | 91 | 1018.6 |
| 20260506193051 | 43 | 248 | 0.9 | 2.6 | 0.00 | 0.00 | 0.00 | 90 | 1019.3 |
| 20260506191545 | 43 | 268 | 0.0 | 2.6 | 0.00 | 0.00 | 0.00 | 90 | 1018.1 |
| 20260506190045 | 43 | 331 | 0.9 | 3.5 | 0.00 | 0.00 | 0.00 | 90 | 1017.9 |
| 20260506184543 | 43 | 324 | 0.0 | 3.5 | 0.00 | 0.00 | 0.00 | 89 | 1017.9 |
| 20260506183043 | 44 | 261 | 1.7 | 4.3 | 0.00 | 0.00 | 0.00 | 89 | 1018.7 |
| 20260506181558 | 44 | 221 | 1.7 | 5.2 | 0.00 | 0.00 | 0.00 | 88 | 1018.9 |
| 20260506180041 | 43 | 266 | 0.9 | 2.6 | 0.00 | 0.00 | 0.00 | 88 | 1018.4 |
| 20260506174539 | 43 | 282 | 0.9 | 4.3 | 0.00 | 0.00 | 0.00 | 87 | 1017.9 |
| 20260506173047 | 44 | 242 | 0.9 | 6.1 | 0.00 | 0.00 | 0.00 | 85 | 1018.6 |
| 20260506171535 | 46 | 179 | 2.6 | 7.0 | 0.00 | 0.00 | 0.00 | 85 | 1019.3 |
| 20260506170030 | 46 | 232 | 2.6 | 5.2 | 0.00 | 0.00 | 0.00 | 81 | 1018.5 |
| 20260506164529 | 47 | 215 | 1.7 | 5.2 | 0.00 | 0.00 | 0.00 | 80 | 1018.5 |
| 20260506163028 | 47 | 272 | 0.0 | 2.6 | 0.00 | 0.00 | 0.00 | 78 | 1017.9 |
| 20260506161527 | 47 | 236 | 0.9 | 4.3 | 0.00 | 0.00 | 0.00 | 79 | 1017.8 |
| 20260506160037 | 47 | 210 | 1.7 | 4.3 | 0.00 | 0.00 | 0.00 | 81 | 1017.8 |
| 20260506154527 | 46 | 225 | 0.9 | 4.3 | 0.00 | 0.00 | 0.00 | 82 | 1017.9 |
| 20260506153025 | 46 | 281 | 0.9 | 4.3 | 0.00 | 0.00 | 0.00 | 82 | 1018.0 |
| 20260506151524 | 46 | 276 | 0.9 | 4.3 | 0.00 | 0.00 | 0.00 | 83 | 1018.2 |
| 20260506150024 | 47 | 241 | 0.9 | 5.2 | 0.00 | 0.00 | 0.00 | 81 | 1018.0 |
| 20260506144519 | 47 | 221 | 0.9 | 4.3 | 0.00 | 0.00 | 0.00 | 78 | 1018.3 |
| 20260506143015 | 48 | 211 | 0.0 | 1.7 | 0.00 | 0.00 | 0.00 | 73 | 1018.2 |
| 20260506141612 | 49 | 223 | 0.0 | 0.9 | 0.00 | 0.00 | 0.00 | 76 | 1017.7 |
| 20260506140010 | 50 | 246 | 0.0 | 1.7 | 0.00 | 0.00 | 0.00 | 74 | 1017.9 |
| 20260506134509 | 50 | 238 | 0.0 | 0.9 | 0.00 | 0.00 | 0.00 | 74 | 1017.5 |
| 20260506133009 | 50 | 232 | 0.0 | 0.9 | 0.00 | 0.00 | 0.00 | 73 | 1017.4 |
| 20260506131513 | 50 | 253 | 0.0 | 1.7 | 0.00 | 0.00 | 0.00 | 76 | 1017.4 |
| 20260506130006 | 51 | 269 | 0.0 | 0.9 | 0.00 | 0.00 | 0.00 | 74 | 1017.3 |
| 20260506124506 | 51 | 227 | 0.0 | 2.6 | 0.00 | 0.00 | 0.00 | 77 | 1017.0 |
| 20260506123005 | 51 | 256 | 0.0 | 2.6 | 0.00 | 0.00 | 0.00 | 81 | 1017.0 |